Flag for Vietnam Weather past 2 weeks in Hanoi, Vietnam

Now
70 °F

Broken clouds.


Feels Like: 70 °F
Forecast: 71 / 79 °F
Wind: 7 mph from Northeast

Location: Ha Noi Airport

Current Time: Mar 5, 2015 at 1:45:41 PM

Latest Report: Mar 5, 2015 at 1:00 PM


Visibility: N/A

Pressure: 29.89 "Hg

Humidity: 83%

Dew point: 64 °F

Location of HanoiLocation

Historic Weather in Hanoi — Graph

°F

Hanoi temperature yesterday

Maximum temperature yesterday: 68 °F (at 12:00 AM)
Minimum temperature yesterday: 64 °F (at 7:30 AM)
Average temperature yesterday: 67 °F

Past Weeks' High & Low Weather Summary

 TemperatureHumidityPressure
High84 °F (Feb 24, 1:30 PM)100% (Feb 22, 8:30 AM)30.12 "Hg (Feb 22, 8:30 AM)
Low63 °F (Mar 2, 4:00 AM)54% (Mar 3, 3:30 PM)29.71 "Hg (Feb 24, 4:00 PM)
Average73 °F82%29.88 "Hg
* Reported Feb 18 12:00 Noon — Mar 5 12:30 PM, Hanoi, Weather by CustomWeather, © 2015

Note: Actual official high and low records may vary slightly from our data, if they occured in-between our weather recording intervals... More about our weather records

Advertising

Hanoi weather history for previous 24 hours

 ConditionsComfort  
Time TempWeatherWind HumidityBarometerVisibility
12:30 PM
Thu, Mar 5
70 °FBroken clouds.3 mph83%29.89 "HgN/A
12:00 PM70 °FBroken clouds.5 mph88%29.92 "Hg5 mi
11:30 AM68 °FBroken clouds.6 mph94%29.92 "Hg4 mi
11:00 AM68 °FBroken clouds.6 mph88%29.95 "Hg5 mi
10:30 AM66 °FBroken clouds.3 mph94%29.95 "Hg4 mi
10:00 AM66 °FDrizzle. Fog.5 mph94%29.95 "Hg2 mi
9:00 AM66 °FDrizzle. Fog.5 mph94%29.95 "Hg1 mi
8:30 AM66 °FDrizzle. Fog.1 mph94%29.95 "Hg1 mi
8:00 AM64 °FDrizzle. Fog.3 mph100%29.92 "Hg2 mi
7:30 AM64 °FDrizzle. Fog.3 mph100%29.92 "Hg1 mi
7:00 AM64 °FDrizzle. Fog.3 mph100%29.92 "Hg1 mi
6:30 AM64 °FDrizzle. Fog.6 mph94%29.89 "Hg1 mi
6:00 AM64 °FDrizzle. Fog.5 mph100%29.89 "Hg1 mi
5:30 AM64 °FDrizzle. Fog.6 mph94%29.86 "Hg1 mi
4:00 AM64 °FDrizzle. Fog.5 mph100%29.86 "Hg1 mi
3:30 AM64 °FDrizzle. Fog.5 mph100%29.86 "Hg1 mi
3:00 AM64 °FDrizzle. Fog.5 mph100%29.86 "Hg1 mi
2:30 AM64 °FDrizzle. Fog.3 mph100%29.86 "Hg1 mi
2:00 AM64 °FDrizzle. Fog.3 mph100%29.86 "Hg1 mi
1:30 AM64 °FDrizzle. Fog.5 mph100%29.86 "Hg1 mi
1:00 AM64 °FDrizzle. Fog.3 mph100%29.89 "Hg1 mi
12:30 AM64 °FDrizzle. Fog.5 mph100%29.89 "Hg1 mi
12:00 AM64 °FDrizzle. Fog.6 mph100%29.89 "Hg1 mi
11:30 PM
Wed, Mar 4
64 °FDrizzle. Fog.6 mph100%29.92 "Hg1 mi
11:00 PM64 °FDrizzle. Fog.6 mph94%29.92 "Hg1 mi
10:30 PM64 °FDrizzle. Fog.6 mph94%29.92 "Hg1 mi
10:00 PM66 °FDrizzle. Fog.6 mph88%29.92 "Hg1 mi
9:30 PM64 °FDrizzle. Fog.6 mph94%29.89 "Hg1 mi
9:00 PM64 °FDrizzle. Fog.6 mph94%29.89 "Hg1 mi
8:30 PM66 °FDrizzle. Fog.6 mph88%29.89 "Hg1 mi
8:00 PM66 °FDrizzle. Fog.6 mph88%29.89 "Hg2 mi
7:30 PM66 °FDrizzle. Fog.6 mph88%29.86 "Hg2 mi
7:00 PM66 °FDrizzle. Fog.7 mph83%29.86 "Hg2 mi
6:30 PM66 °FDrizzle. Fog.6 mph83%29.86 "Hg2 mi
6:00 PM68 °FFog.8 mph78%29.83 "Hg3 mi
5:30 PM68 °FBroken clouds.9 mph78%29.83 "Hg3 mi
5:00 PM68 °FFog.9 mph78%29.83 "Hg3 mi
4:30 PM68 °FBroken clouds.8 mph73%29.83 "Hg3 mi
4:00 PM68 °FBroken clouds.8 mph73%29.83 "Hg4 mi
3:30 PM68 °FBroken clouds.7 mph73%29.83 "Hg3 mi
3:00 PM68 °FBroken clouds.7 mph73%29.83 "Hg4 mi
2:30 PM68 °FBroken clouds.7 mph73%29.83 "Hg4 mi
2:00 PM68 °FBroken clouds.8 mph69%29.86 "Hg4 mi
1:30 PM68 °FBroken clouds.8 mph73%29.86 "Hg4 mi
1:00 PM68 °FBroken clouds.8 mph73%29.89 "Hg4 mi
Weather by CustomWeather, © 2015

See weather overviewHow to use our weather pages